AZU2795 SBRJ-SBSP

Flight info

Callsign AZU2795
Flight time N/A
Altitude 30000
Route NAXOP UZ45 IBDAL
Aircraft E195/M-SDE3GILORVW/S

Departure

Time 2026-04-30 19:50
Airport Santos Dumont Airport (SBRJ)

Arrival

Time N/A
Airport Congonhas–Deputado Freitas Nobre Airport (SBSP)
Time Latitude Longitude Altitude Speed Heading
2026-04-30 19:23 -22.91099 -43.16586 26 ft 0 kts 266°
2026-04-30 19:37 -22.91098 -43.16575 26 ft 2 kts 266°
2026-04-30 19:37 -22.91098 -43.16559 26 ft 2 kts 266°
2026-04-30 19:37 -22.91099 -43.16543 26 ft 2 kts 294°
2026-04-30 19:37 -22.91108 -43.16529 26 ft 2 kts 317°
2026-04-30 19:38 -22.91120 -43.16520 26 ft 2 kts 340°
2026-04-30 19:38 -22.91127 -43.16518 26 ft 0 kts 349°
2026-04-30 19:38 -22.91130 -43.16518 26 ft 1 kts 355°
2026-04-30 19:38 -22.91134 -43.16517 26 ft 0 kts 353°
2026-04-30 19:44 -22.91122 -43.16520 26 ft 3 kts 342°
2026-04-30 19:44 -22.91083 -43.16533 26 ft 7 kts 348°
2026-04-30 19:44 -22.91025 -43.16541 26 ft 7 kts 355°
2026-04-30 19:45 -22.90980 -43.16545 26 ft 5 kts 355°
2026-04-30 19:45 -22.90953 -43.16548 26 ft 2 kts 355°
2026-04-30 19:45 -22.90942 -43.16548 26 ft 0 kts 355°
2026-04-30 19:45 -22.90929 -43.16550 26 ft 4 kts 358°
2026-04-30 19:46 -22.90875 -43.16549 26 ft 10 kts 359°
2026-04-30 19:46 -22.90807 -43.16543 27 ft 10 kts 11°
2026-04-30 19:46 -22.90728 -43.16544 27 ft 12 kts 356°
2026-04-30 19:46 -22.90636 -43.16551 27 ft 12 kts 356°
2026-04-30 19:47 -22.90558 -43.16557 27 ft 10 kts 356°
2026-04-30 19:47 -22.90505 -43.16537 27 ft 7 kts 73°
2026-04-30 19:47 -22.90498 -43.16480 27 ft 7 kts 84°
2026-04-30 19:47 -22.90494 -43.16434 27 ft 5 kts 85°
2026-04-30 19:48 -22.90488 -43.16401 27 ft 3 kts 75°
2026-04-30 19:48 -22.90483 -43.16380 27 ft 3 kts 75°
2026-04-30 19:48 -22.90469 -43.16345 28 ft 6 kts 56°
2026-04-30 19:48 -22.90485 -43.16315 27 ft 5 kts 161°
2026-04-30 19:49 -22.90497 -43.16312 26 ft 0 kts 173°
2026-04-30 19:49 -22.90755 -43.16288 26 ft 73 kts 176°
2026-04-30 19:49 -22.91448 -43.16248 26 ft 116 kts 176°
2026-04-30 19:50 -22.92287 -43.16183 217 ft 124 kts 172°
2026-04-30 19:50 -22.93096 -43.15911 696 ft 126 kts 151°
2026-04-30 19:50 -22.93821 -43.15311 1163 ft 132 kts 137°
2026-04-30 19:50 -22.94482 -43.14575 1526 ft 150 kts 130°
2026-04-30 19:51 -22.95206 -43.13553 1672 ft 186 kts 126°
2026-04-30 19:51 -22.95915 -43.12495 2704 ft 165 kts 125°
2026-04-30 19:51 -22.96705 -43.11478 2968 ft 194 kts 137°